Miscellaneous Local Product
Issued by NWS Hastings, NE

Home | Current Version | Previous Version | Text Only | Print | Product List | Glossary Off
Versions: 1 2 3 4 5 6 7 8 9 10 11 12 13 14 15 16 17 18 19 20 21 22 23 24 25 26 27 28 29 30 31 32 33 34 35 36 37 38 39 40 41 42 43 44 45 46 47 48 49 50

000
AXUS43 KGID 231902
MISGRI

GID CWA HOURLY WEATHER ROUNDUP
NATIONAL WEATHER SERVICE HASTINGS NE
200 PM CDT THU OCT 23 2014

NOTE: "FAIR" INDICATES FEW OR NO CLOUDS BELOW 12,000 FEET WITH NO
SIGNIFICANT WEATHER AND/OR OBSTRUCTIONS TO VISIBILITY.

...SOUTH CENTRAL NEBRASKA...

CITY           SKY/WX    TMP DP  RH WIND       PRES   REMARKS
GRAND ISLAND   SUNNY     63  55  75 S8        30.07F
HASTINGS       FOG       56  53  90 SW6       30.08F VSB 3/4
KEARNEY        MOSUNNY   59  55  88 S9        30.08F
ORD            SUNNY     69  50  50 S10       30.02F
YORK           SUNNY     68  54  60 SW8       30.06F
AURORA         SUNNY     64  64 100 SW9       30.06F
LEXINGTON      MOSUNNY   68  57  66 SW6       30.06F
HOLDREGE       MOSUNNY   58  57  96 CALM      30.07F
HEBRON         SUNNY     71  57  61 W6        30.06F

...NEBRASKA PANHANDLE...

CITY           SKY/WX    TMP DP  RH WIND       PRES   REMARKS
CHADRON        CLOUDY    68  36  30 SW12      29.97F
ALLIANCE       CLOUDY    68  31  25 W22G30    30.03F
SCOTTSBLUFF    CLOUDY    66  39  37 W6        30.05F
SIDNEY         PTSUNNY   68  38  33 SW15G24   30.09F

...WESTERN AND NORTH CENTRAL NEBRASKA...

CITY           SKY/WX    TMP DP  RH WIND       PRES   REMARKS
VALENTINE      MOSUNNY   73  36  25 SW13      29.96F
AINSWORTH      SUNNY     73  40  31 SW13      29.98F
ONEILL         SUNNY     71  42  35 SW13      30.00F
BROKEN BOW     SUNNY     70  55  59 S9        30.03F
IMPERIAL       MOSUNNY   74  41  30 SW14G22   30.06F
NORTH PLATTE   PTSUNNY   73  43  33 SW14      30.03F
MCCOOK         PTSUNNY   71  52  50 VRB6      30.07F

...EASTERN NEBRASKA...

CITY           SKY/WX    TMP DP  RH WIND       PRES   REMARKS
NORFOLK        SUNNY     69  47  45 S13       30.03F
SO SIOUX CITY  SUNNY     71  48  43 S8        30.02F
TEKAMAH        SUNNY     69  50  50 CALM      30.03F
COLUMBUS       SUNNY     64  52  63 SW5       30.07F
ALBION         SUNNY     68  47  47 SW10      30.03F
OMAHA EPPLEY   SUNNY     69  52  54 NE3       30.04F
OFFUTT AFB     SUNNY     70  59  68 W7        30.03F
LINCOLN        SUNNY     67  56  67 SW6       30.06F
NEBRASKA CITY  SUNNY     68  57  67 NW7       30.04F
BEATRICE       SUNNY     70  55  57 S5        30.05F
FALLS CITY     SUNNY     72  57  59 SW6       30.04F

...NORTHERN KANSAS...

CITY           SKY/WX    TMP DP  RH WIND       PRES   REMARKS
GOODLAND       SUNNY     72  46  39 S12       30.10F
HILL CITY      PTSUNNY   66  58  75 SW9       30.09F
NORTON         CLEAR     68  54  60 S10       30.07F
PHILLIPSBURG   FOG       59  59 100 S3        30.09F VSB 1
SMITH CENTER   CLOUDY    55  55 100 CALM      30.09F FOG
BELOIT         PTSUNNY   64  61  88 W5        30.06F
HAYS           MOSUNNY   70  57  64 S9        30.08F
RUSSELL        MOSUNNY   73  58  59 SW12      30.05F
CONCORDIA      SUNNY     72  59  63 W7        30.06F
SALINA         PTSUNNY   74  59  59 S5        30.06F
TOPEKA         CLOUDY    69  62  78 SW3       30.07F



USA.gov is the U.S. government's official web portal to all federal, state and local government web resources and services.